Zurück zum Katalog

O3B FM13

AktivKommunikationMEO
NORAD 43234·PAYLOAD·🇱🇺 Luxembourg

Gestartet Mar 9, 2018 von Guiana Space Centre

Loading…

Nächste Überflüge (nächste 24 Stunden)

TLE

AktuellSource: CelesTrak SupGP

Epoche: Sep 14, 2026, 16:59 UTC

1 43234C 18024D   26257.70833333  .00000000  00000+0  00000+0 0  2578
2 43234   0.0568 342.5405 0000958 121.6922  85.7052  5.00115796    17

Verfolge O3B FM13 in Echtzeit mit AllMySat

Download on the App Store